Location: Congrier
(47.8099°N, 1.1170°W)
Time: 12:07:37
(UTC+00:00)

Cosmos 2360 Rocket - Pass Details

Date: 28 January 2023
Orbit: 832 x 846 km, 71.0° (Epoch: 21 March)

Event Time Altitude Azimuth Distance (km) Brightness Sun altitude
Rises 19:37:40 0° 189° (S) 3,370 5.4 -26.7°
Reaches altitude 10° 19:40:08 10° 184° (S) 2,442 4.6 -27.1°
Enters shadow 19:41:49 20° 177° (S) 1,847 3.9 -27.4°
